Location: Colossi of Memnon
(25.7167°N, 32.6167°E)
Time: 04:51:47
(UTC+00:00)

NOAA 6 - Pass Details

Date: 05 March 2021
Orbit: 771 x 788 km, 98.7° (Epoch: 10 April)

Event Time Altitude Azimuth Distance (km) Brightness Sun altitude
Rises 03:41:38 0° 13° (NNE) 3,257 7.4 -7.0°
Reaches altitude 10° 03:43:57 10° 13° (NNE) 2,325 6.6 -6.4°
Maximum altitude 03:49:06 86° 103° (ESE) 779 4.1 -5.3°
Drops below altitude 10° 03:54:11 10° 192° (SSW) 2,307 6.4 -4.1°
Sets 03:56:29 0° 193° (SSW) 3,230 7.2 -3.6°
